Time,TemperatureF,DewpointF,PressureIn,WindDirection,WindDirectionDegrees,WindSpeedMPH,WindSpeedGustMPH,Humidity,HourlyPrecipIn,Conditions,Clouds,dailyrainin,SoftwareType,DateUTC
2013-12-26 00:01:00,67.1,63.1,30.12,NNE,13,8.1,8.1,87,0.00,CLR,,0.00,WeatherDisplay:10.37,2013-12-26 05:01:00,
2013-12-26 00:02:00,67.1,63.1,30.12,NNE,15,5.8,5.8,87,0.00,CLR,,0.00,WeatherDisplay:10.37,2013-12-26 05:02:00,
2013-12-26 00:03:00,67.1,63.1,30.12,NNE,23,4.6,4.6,87,0.00,CLR,,0.00,WeatherDisplay:10.37,2013-12-26 05:03:00,
2013-12-26 00:08:00,67.1,63.4,30.12,NNE,13,8.1,8.1,88,0.00,CLR,,0.00,WeatherDisplay:10.37,2013-12-26 05:08:00,
2013-12-26 00:13:00,67.0,63.3,30.12,NNE,26,8.1,8.1,88,0.00,CLR,,0.00,WeatherDisplay:10.37,2013-12-26 05:13:00,
2013-12-26 00:18:00,67.0,63.3,30.12,NE,44,4.0,4.0,88,0.00,CLR,,0.00,WeatherDisplay:10.37,2013-12-26 05:18:00,
2013-12-26 00:23:00,66.8,63.1,30.12,NW,326,3.5,3.5,88,0.00,CLR,,0.00,WeatherDisplay:10.37,2013-12-26 05:23:00,
2013-12-26 00:28:00,66.7,63.0,30.12,NNW,342,5.8,5.8,88,0.00,CLR,,0.00,WeatherDisplay:10.37,2013-12-26 05:28:00,
2013-12-26 00:33:00,66.6,62.9,30.12,North,358,4.6,4.6,88,0.00,CLR,,0.00,WeatherDisplay:10.37,2013-12-26 05:33:00,
2013-12-26 00:38:00,66.6,63.3,30.12,North,6,4.6,4.6,89,0.00,CLR,,0.00,WeatherDisplay:10.37,2013-12-26 05:38:00,
2013-12-26 00:43:00,66.6,63.3,30.12,NE,35,6.9,6.9,89,0.00,CLR,,0.00,WeatherDisplay:10.37,2013-12-26 05:43:00,
2013-12-26 00:48:00,66.5,63.2,30.11,NNE,22,5.8,5.8,89,0.00,CLR,,0.00,WeatherDisplay:10.37,2013-12-26 05:48:00,
2013-12-26 00:53:00,66.4,63.1,30.12,North,352,3.5,3.5,89,0.00,CLR,,0.00,WeatherDisplay:10.37,2013-12-26 05:53:00,
2013-12-26 00:58:00,66.3,63.0,30.12,North,352,3.5,3.5,89,0.00,CLR,,0.00,WeatherDisplay:10.37,2013-12-26 05:58:00,
2013-12-26 01:03:00,66.1,62.8,30.11,NNE,29,8.1,8.1,89,0.00,CLR,,0.00,WeatherDisplay:10.37,2013-12-26 06:03:00,
2013-12-26 01:06:00,66.0,62.7,30.11,NNE,19,7.0,7.0,89,0.00,CLR,,0.00,WeatherDisplay:10.37,2013-12-26 06:06:00,
2013-12-26 01:08:00,66.0,62.7,30.11,NNE,19,7.0,7.0,89,0.00,CLR,,0.00,WeatherDisplay:10.37,2013-12-26 06:08:00,
2013-12-26 01:13:00,66.0,62.7,30.11,NNE,19,7.0,7.0,89,0.00,CLR,,0.00,WeatherDisplay:10.37,2013-12-26 06:13:00,
2013-12-26 01:40:00,65.4,62.4,30.11,NNE,15,7.0,7.0,90,0.00,CLR,,0.00,WeatherDisplay:10.37,2013-12-26 06:40:00,
2013-12-26 01:45:00,65.3,62.3,30.11,NE,43,9.2,9.2,90,0.00,CLR,,0.00,WeatherDisplay:10.37,2013-12-26 06:45:00,
2013-12-26 01:50:00,65.3,62.3,30.11,NE,41,8.1,8.1,90,0.00,CLR,,0.00,WeatherDisplay:10.37,2013-12-26 06:50:00,
2013-12-26 01:55:00,65.3,62.3,30.11,NE,39,5.8,5.8,90,0.00,CLR,,0.00,WeatherDisplay:10.37,2013-12-26 06:55:00,
2013-12-26 02:00:00,65.3,62.3,30.11,NNE,19,8.1,8.1,90,0.00,CLR,,0.00,WeatherDisplay:10.37,2013-12-26 07:00:00,
2013-12-26 02:05:00,65.3,62.3,30.11,NNE,25,5.8,5.8,90,0.00,CLR,,0.00,WeatherDisplay:10.37,2013-12-26 07:05:00,
2013-12-26 02:10:00,65.3,62.3,30.11,NNE,23,7.0,7.0,90,0.00,CLR,,0.00,WeatherDisplay:10.37,2013-12-26 07:10:00,
2013-12-26 02:15:00,65.4,62.4,30.10,NE,47,9.2,9.2,90,0.00,CLR,,0.00,WeatherDisplay:10.37,2013-12-26 07:15:00,
2013-12-26 02:20:00,65.4,62.4,30.10,NNE,27,6.9,6.9,90,0.00,CLR,,0.00,WeatherDisplay:10.37,2013-12-26 07:20:00,
2013-12-26 02:25:00,65.5,62.5,30.10,NNE,20,5.8,5.8,90,0.00,CLR,,0.00,WeatherDisplay:10.37,2013-12-26 07:25:00,
2013-12-26 02:30:00,65.6,62.6,30.10,North,358,8.1,8.1,90,0.00,CLR,,0.00,WeatherDisplay:10.37,2013-12-26 07:30:00,
2013-12-26 02:35:00,65.7,62.7,30.10,NE,44,10.4,10.4,90,0.00,CLR,,0.00,WeatherDisplay:10.37,2013-12-26 07:35:00,
2013-12-26 02:40:00,65.8,62.8,30.10,WNW,300,5.0,5.0,90,0.00,CLR,,0.00,WeatherDisplay:10.37,2013-12-26 07:40:00,
2013-12-26 02:45:00,65.8,62.8,30.10,NE,39,8.1,8.1,90,0.00,CLR,,0.00,WeatherDisplay:10.37,2013-12-26 07:45:00,
2013-12-26 02:50:00,65.8,62.8,30.10,North,7,6.0,6.0,90,0.00,CLR,,0.00,WeatherDisplay:10.37,2013-12-26 07:50:00,
2013-12-26 02:55:00,65.9,62.9,30.10,NNW,342,4.6,4.6,90,0.00,CLR,,0.00,WeatherDisplay:10.37,2013-12-26 07:55:00,
2013-12-26 03:00:00,66.1,63.1,30.10,NE,51,5.8,5.8,90,0.00,CLR,,0.00,WeatherDisplay:10.37,2013-12-26 08:00:00,
2013-12-26 03:05:00,66.2,62.9,30.10,NE,44,6.9,6.9,89,0.00,CLR,,0.00,WeatherDisplay:10.37,2013-12-26 08:05:00,
2013-12-26 03:10:00,66.3,63.0,30.10,NNE,15,5.8,5.8,89,0.00,CLR,,0.00,WeatherDisplay:10.37,2013-12-26 08:10:00,
2013-12-26 03:15:00,66.4,63.1,30.10,NNE,19,6.0,6.0,89,0.00,CLR,,0.00,WeatherDisplay:10.37,2013-12-26 08:15:00,
2013-12-26 03:20:00,66.4,63.1,30.10,NE,46,8.1,8.1,89,0.00,CLR,,0.00,WeatherDisplay:10.37,2013-12-26 08:20:00,
2013-12-26 03:25:00,66.5,63.2,30.11,North,359,5.0,5.0,89,0.00,CLR,,0.00,WeatherDisplay:10.37,2013-12-26 08:25:00,
2013-12-26 03:30:00,66.5,63.2,30.11,NNE,29,9.2,9.2,89,0.00,CLR,,0.00,WeatherDisplay:10.37,2013-12-26 08:30:00,
2013-12-26 03:35:00,66.6,63.3,30.11,North,354,9.2,9.2,89,0.00,CLR,,0.00,WeatherDisplay:10.37,2013-12-26 08:35:00,
2013-12-26 03:40:00,66.6,63.3,30.10,NNE,30,5.8,5.8,89,0.00,CLR,,0.00,WeatherDisplay:10.37,2013-12-26 08:40:00,
2013-12-26 03:45:00,66.6,63.3,30.10,NE,44,3.5,3.5,89,0.00,CLR,,0.00,WeatherDisplay:10.37,2013-12-26 08:45:00,
2013-12-26 03:50:00,66.6,63.3,30.10,NNE,22,3.5,3.5,89,0.00,CLR,,0.00,WeatherDisplay:10.37,2013-12-26 08:50:00,
2013-12-26 03:55:00,66.6,63.3,30.10,NNW,348,6.0,6.0,89,0.00,CLR,,0.00,WeatherDisplay:10.37,2013-12-26 08:55:00,
2013-12-26 04:00:00,66.6,63.3,30.10,NNW,333,4.6,4.6,89,0.00,CLR,,0.00,WeatherDisplay:10.37,2013-12-26 09:00:00,
2013-12-26 04:05:00,66.5,63.2,30.10,NNW,348,4.6,4.6,89,0.00,CLR,,0.00,WeatherDisplay:10.37,2013-12-26 09:05:00,
2013-12-26 04:10:00,66.3,63.0,30.10,North,354,4.6,4.6,89,0.00,CLR,,0.00,WeatherDisplay:10.37,2013-12-26 09:10:00,
2013-12-26 04:15:00,66.2,62.9,30.10,NNW,344,4.0,4.0,89,0.00,CLR,,0.00,WeatherDisplay:10.37,2013-12-26 09:15:00,
2013-12-26 04:20:00,66.0,62.7,30.10,NNW,334,3.5,3.5,89,0.00,CLR,,0.00,WeatherDisplay:10.37,2013-12-26 09:20:00,
2013-12-26 04:25:00,65.9,62.9,30.10,NNW,338,5.8,5.8,90,0.00,CLR,,0.00,WeatherDisplay:10.37,2013-12-26 09:25:00,
2013-12-26 04:30:00,65.8,62.8,30.10,NNE,33,6.9,6.9,90,0.00,CLR,,0.00,WeatherDisplay:10.37,2013-12-26 09:30:00,
2013-12-26 04:35:00,65.8,62.8,30.09,NNE,22,6.9,6.9,90,0.00,CLR,,0.00,WeatherDisplay:10.37,2013-12-26 09:35:00,
2013-12-26 04:40:00,65.8,62.8,30.09,NE,49,3.5,3.5,90,0.00,CLR,,0.00,WeatherDisplay:10.37,2013-12-26 09:40:00,
2013-12-26 04:45:00,65.8,62.8,30.10,North,352,3.5,3.5,90,0.00,CLR,,0.00,WeatherDisplay:10.37,2013-12-26 09:45:00,
2013-12-26 04:50:00,65.9,62.9,30.10,NNE,13,3.5,3.5,90,0.00,CLR,,0.00,WeatherDisplay:10.37,2013-12-26 09:50:00,
2013-12-26 04:55:00,65.8,62.8,30.10,NNE,29,5.8,5.8,90,0.00,CLR,,0.00,WeatherDisplay:10.37,2013-12-26 09:55:00,
2013-12-26 05:00:00,65.9,62.9,30.10,NE,44,4.0,4.0,90,0.00,CLR,,0.00,WeatherDisplay:10.37,2013-12-26 10:00:00,
2013-12-26 05:05:00,65.9,62.9,30.10,NE,44,5.8,5.8,90,0.00,CLR,,0.00,WeatherDisplay:10.37,2013-12-26 10:05:00,
2013-12-26 05:10:00,66.0,63.0,30.10,NE,39,4.0,4.0,90,0.00,CLR,,0.00,WeatherDisplay:10.37,2013-12-26 10:10:00,
2013-12-26 05:15:00,66.0,63.0,30.09,NE,39,3.5,3.5,90,0.00,CLR,,0.00,WeatherDisplay:10.37,2013-12-26 10:15:00,
2013-12-26 05:20:00,66.2,63.2,30.10,NNE,33,6.9,6.9,90,0.00,CLR,,0.00,WeatherDisplay:10.37,2013-12-26 10:20:00,
2013-12-26 05:25:00,66.3,63.3,30.10,NE,41,5.8,5.8,90,0.00,CLR,,0.00,WeatherDisplay:10.37,2013-12-26 10:25:00,
2013-12-26 05:30:00,66.4,63.4,30.10,NNE,32,3.5,3.5,90,0.00,CLR,,0.00,WeatherDisplay:10.37,2013-12-26 10:30:00,
2013-12-26 05:35:00,66.6,63.6,30.10,NE,39,6.9,6.9,90,0.00,CLR,,0.00,WeatherDisplay:10.37,2013-12-26 10:35:00,
2013-12-26 05:40:00,66.6,63.6,30.10,NE,36,6.0,6.0,90,0.00,CLR,,0.00,WeatherDisplay:10.37,2013-12-26 10:40:00,
2013-12-26 05:45:00,66.7,63.7,30.10,NE,35,3.5,3.5,90,0.00,CLR,,0.00,WeatherDisplay:10.37,2013-12-26 10:45:00,
2013-12-26 05:50:00,66.7,63.7,30.10,NE,40,6.0,6.0,90,0.00,CLR,,0.00,WeatherDisplay:10.37,2013-12-26 10:50:00,
2013-12-26 05:55:00,66.7,63.7,30.10,NNE,26,6.0,6.0,90,0.00,CLR,,0.00,WeatherDisplay:10.37,2013-12-26 10:55:00,
2013-12-26 06:00:00,66.8,63.8,30.10,NNE,16,6.9,6.9,90,0.00,CLR,,0.00,WeatherDisplay:10.37,2013-12-26 11:00:00,
2013-12-26 06:05:00,66.8,63.8,30.10,NNW,334,6.9,6.9,90,0.00,CLR,,0.00,WeatherDisplay:10.37,2013-12-26 11:05:00,
2013-12-26 06:10:00,66.9,63.9,30.10,NE,41,5.8,5.8,90,0.00,CLR,,0.00,WeatherDisplay:10.37,2013-12-26 11:10:00,
2013-12-26 06:15:00,67.0,64.0,30.10,East,86,4.6,4.6,90,0.00,CLR,,0.00,WeatherDisplay:10.37,2013-12-26 11:15:00,
2013-12-26 06:20:00,67.0,64.0,30.11,NE,34,8.1,8.1,90,0.00,CLR,,0.00,WeatherDisplay:10.37,2013-12-26 11:20:00,
2013-12-26 06:25:00,67.1,64.1,30.11,NNE,29,6.9,6.9,90,0.00,CLR,,0.00,WeatherDisplay:10.37,2013-12-26 11:25:00,
2013-12-26 06:30:00,67.2,64.2,30.11,NE,36,5.8,5.8,90,0.00,CLR,,0.00,WeatherDisplay:10.37,2013-12-26 11:30:00,
2013-12-26 06:35:00,67.2,64.2,30.11,NNE,23,3.5,3.5,90,0.00,CLR,,0.00,WeatherDisplay:10.37,2013-12-26 11:35:00,
2013-12-26 06:40:00,67.2,64.2,30.11,NNE,25,5.8,5.8,90,0.00,CLR,,0.00,WeatherDisplay:10.37,2013-12-26 11:40:00,
2013-12-26 06:45:00,67.2,64.2,30.12,North,9,5.0,5.0,90,0.00,CLR,,0.00,WeatherDisplay:10.37,2013-12-26 11:45:00,
2013-12-26 06:50:00,67.2,64.2,30.12,NW,326,6.9,6.9,90,0.00,CLR,,0.00,WeatherDisplay:10.37,2013-12-26 11:50:00,
2013-12-26 06:55:00,67.2,64.2,30.12,NNW,328,3.5,3.5,90,0.00,CLR,,0.00,WeatherDisplay:10.37,2013-12-26 11:55:00,
2013-12-26 07:00:00,67.1,64.1,30.12,NNW,338,5.8,5.8,90,0.00,CLR,,0.00,WeatherDisplay:10.37,2013-12-26 12:00:00,
2013-12-26 07:05:00,66.9,63.9,30.13,NNW,347,5.8,5.8,90,0.00,CLR,,0.00,WeatherDisplay:10.37,2013-12-26 12:05:00,
2013-12-26 07:10:00,66.8,63.8,30.13,NNW,336,7.0,7.0,90,0.00,CLR,,0.00,WeatherDisplay:10.37,2013-12-26 12:10:00,
2013-12-26 07:15:00,66.6,63.9,30.13,NNW,334,6.0,6.0,91,0.00,CLR,,0.00,WeatherDisplay:10.37,2013-12-26 12:15:00,
2013-12-26 07:20:00,66.6,63.9,30.14,NNE,12,4.6,4.6,91,0.00,CLR,,0.00,WeatherDisplay:10.37,2013-12-26 12:20:00,
2013-12-26 07:25:00,66.4,63.7,30.14,NNE,16,6.9,6.9,91,0.00,CLR,,0.00,WeatherDisplay:10.37,2013-12-26 12:25:00,
2013-12-26 07:30:00,66.4,63.7,30.14,North,9,5.8,5.8,91,0.00,CLR,,0.00,WeatherDisplay:10.37,2013-12-26 12:30:00,
2013-12-26 07:35:00,66.4,63.7,30.14,NNE,19,8.1,8.1,91,0.00,CLR,,0.00,WeatherDisplay:10.37,2013-12-26 12:35:00,
2013-12-26 07:40:00,66.5,63.8,30.14,NNE,32,4.6,4.6,91,0.00,CLR,,0.00,WeatherDisplay:10.37,2013-12-26 12:40:00,
2013-12-26 07:45:00,66.5,63.8,30.14,NNW,346,4.6,4.6,91,0.00,CLR,,0.00,WeatherDisplay:10.37,2013-12-26 12:45:00,
2013-12-26 07:50:00,66.6,63.9,30.14,NNW,344,4.0,4.0,91,0.00,CLR,,0.00,WeatherDisplay:10.37,2013-12-26 12:50:00,
2013-12-26 07:55:00,66.4,63.7,30.14,NNE,29,6.9,6.9,91,0.00,CLR,,0.00,WeatherDisplay:10.37,2013-12-26 12:55:00,
2013-12-26 08:00:00,66.3,63.6,30.14,NNE,26,5.8,5.8,91,0.00,CLR,,0.00,WeatherDisplay:10.37,2013-12-26 13:00:00,
2013-12-26 08:05:00,66.2,63.5,30.14,NNE,20,6.9,6.9,91,0.00,CLR,,0.00,WeatherDisplay:10.37,2013-12-26 13:05:00,
2013-12-26 08:10:00,66.2,63.5,30.14,NNW,339,10.4,10.4,91,0.00,CLR,,0.00,WeatherDisplay:10.37,2013-12-26 13:10:00,
2013-12-26 08:15:00,66.3,63.6,30.15,NNE,30,5.8,5.8,91,0.00,CLR,,0.00,WeatherDisplay:10.37,2013-12-26 13:15:00,
2013-12-26 08:20:00,66.4,63.7,30.15,North,352,6.9,6.9,91,0.00,CLR,,0.00,WeatherDisplay:10.37,2013-12-26 13:20:00,
2013-12-26 08:25:00,66.6,63.9,30.15,North,9,9.2,9.2,91,0.00,CLR,,0.00,WeatherDisplay:10.37,2013-12-26 13:25:00,
2013-12-26 08:30:00,66.7,63.7,30.15,NNE,23,11.5,11.5,90,0.00,CLR,,0.00,WeatherDisplay:10.37,2013-12-26 13:30:00,
2013-12-26 08:35:00,66.8,63.8,30.15,NNE,19,8.1,8.1,90,0.00,CLR,,0.00,WeatherDisplay:10.37,2013-12-26 13:35:00,
2013-12-26 08:40:00,66.8,63.8,30.16,North,6,9.2,9.2,90,0.00,CLR,,0.00,WeatherDisplay:10.37,2013-12-26 13:40:00,
2013-12-26 08:45:00,66.9,63.9,30.16,NNW,334,9.2,9.2,90,0.00,CLR,,0.00,WeatherDisplay:10.37,2013-12-26 13:45:00,
2013-12-26 08:50:00,67.0,64.0,30.16,NE,37,6.9,6.9,90,0.00,CLR,,0.00,WeatherDisplay:10.37,2013-12-26 13:50:00,
2013-12-26 08:55:00,67.2,64.2,30.16,North,356,8.1,8.1,90,0.00,CLR,,0.00,WeatherDisplay:10.37,2013-12-26 13:55:00,
2013-12-26 09:00:00,67.4,64.0,30.16,NNW,342,9.2,9.2,89,0.00,CLR,,0.00,WeatherDisplay:10.37,2013-12-26 14:00:00,
2013-12-26 09:05:00,67.6,64.2,30.17,NNW,342,6.0,6.0,89,0.00,CLR,,0.00,WeatherDisplay:10.37,2013-12-26 14:05:00,
2013-12-26 09:10:00,67.8,64.4,30.17,NW,319,10.4,10.4,89,0.00,CLR,,0.00,WeatherDisplay:10.37,2013-12-26 14:10:00,
2013-12-26 09:15:00,67.9,64.2,30.17,NE,49,10.4,10.4,88,0.00,CLR,,0.00,WeatherDisplay:10.37,2013-12-26 14:15:00,
2013-12-26 09:20:00,68.1,64.4,30.17,North,356,7.0,7.0,88,0.00,CLR,,0.00,WeatherDisplay:10.37,2013-12-26 14:20:00,
2013-12-26 09:25:00,68.4,64.7,30.17,NNW,347,5.8,5.8,88,0.00,CLR,,0.00,WeatherDisplay:10.37,2013-12-26 14:25:00,
2013-12-26 09:30:00,68.6,64.9,30.17,North,349,10.4,10.4,88,0.00,CLR,,0.00,WeatherDisplay:10.37,2013-12-26 14:30:00,
2013-12-26 09:35:00,68.7,65.0,30.17,NE,41,6.0,6.0,88,0.00,CLR,,0.00,WeatherDisplay:10.37,2013-12-26 14:35:00,
2013-12-26 09:40:00,68.9,65.2,30.17,NNE,15,6.9,6.9,88,0.00,CLR,,0.00,WeatherDisplay:10.37,2013-12-26 14:40:00,
2013-12-26 09:45:00,69.2,65.5,30.17,NNE,12,6.0,6.0,88,0.00,CLR,,0.00,WeatherDisplay:10.37,2013-12-26 14:45:00,
2013-12-26 09:50:00,69.3,65.3,30.17,NW,311,9.2,9.2,87,0.00,CLR,,0.00,WeatherDisplay:10.37,2013-12-26 14:50:00,
2013-12-26 09:55:00,69.4,65.4,30.17,North,9,8.1,8.1,87,0.00,CLR,,0.00,WeatherDisplay:10.37,2013-12-26 14:55:00,
2013-12-26 10:00:00,69.5,65.5,30.18,NNE,23,8.1,8.1,87,0.00,CLR,,0.00,WeatherDisplay:10.37,2013-12-26 15:00:00,
2013-12-26 10:05:00,69.5,65.5,30.17,NNW,348,9.2,9.2,87,0.00,CLR,,0.00,WeatherDisplay:10.37,2013-12-26 15:05:00,
2013-12-26 10:10:00,69.8,65.8,30.17,NNW,345,4.6,4.6,87,0.00,CLR,,0.00,WeatherDisplay:10.37,2013-12-26 15:10:00,
2013-12-26 10:15:00,70.1,66.0,30.17,NNE,20,4.0,4.0,87,0.00,CLR,,0.00,WeatherDisplay:10.37,2013-12-26 15:15:00,
2013-12-26 10:20:00,70.4,66.0,30.17,NNE,19,6.9,6.9,86,0.00,CLR,,0.00,WeatherDisplay:10.37,2013-12-26 15:20:00,
2013-12-26 10:25:00,70.8,66.4,30.17,North,349,5.8,5.8,86,0.00,CLR,,0.00,WeatherDisplay:10.37,2013-12-26 15:25:00,
2013-12-26 10:30:00,71.2,66.8,30.17,NNE,27,8.1,8.1,86,0.00,CLR,,0.00,WeatherDisplay:10.37,2013-12-26 15:30:00,
2013-12-26 10:35:00,71.6,67.2,30.17,NE,43,5.8,5.8,86,0.00,CLR,,0.00,WeatherDisplay:10.37,2013-12-26 15:35:00,
2013-12-26 10:40:00,72.2,67.4,30.17,NNE,15,8.1,8.1,85,0.00,CLR,,0.00,WeatherDisplay:10.37,2013-12-26 15:40:00,
2013-12-26 10:45:00,72.4,67.6,30.17,NE,41,8.1,8.1,85,0.00,CLR,,0.00,WeatherDisplay:10.37,2013-12-26 15:45:00,
2013-12-26 10:50:00,72.6,67.5,30.18,NNE,15,8.1,8.1,84,0.00,CLR,,0.00,WeatherDisplay:10.37,2013-12-26 15:50:00,
2013-12-26 10:54:00,72.8,67.7,30.18,NE,39,5.8,5.8,84,0.00,CLR,,0.00,WeatherDisplay:10.37,2013-12-26 15:54:00,
2013-12-26 10:55:00,72.8,67.7,30.18,NE,39,5.8,5.8,84,0.00,CLR,,0.00,WeatherDisplay:10.37,2013-12-26 15:55:00,
2013-12-26 11:00:00,72.8,67.7,30.18,NE,39,5.8,5.8,84,0.00,CLR,,0.00,WeatherDisplay:10.37,2013-12-26 16:00:00,
2013-12-26 11:27:00,73.9,68.8,30.17,North,357,8.0,8.0,84,0.00,CLR,,0.00,WeatherDisplay:10.37,2013-12-26 16:27:00,
2013-12-26 11:29:00,73.9,68.8,30.17,NW,319,5.8,5.8,84,0.00,CLR,,0.00,WeatherDisplay:10.37,2013-12-26 16:29:00,
2013-12-26 11:32:00,73.9,68.8,30.17,NW,319,5.8,5.8,84,0.00,CLR,,0.00,WeatherDisplay:10.37,2013-12-26 16:32:00,
2013-12-26 11:37:00,73.9,68.8,30.17,NW,319,5.8,5.8,84,0.00,CLR,,0.00,WeatherDisplay:10.37,2013-12-26 16:37:00,
2013-12-26 12:03:00,73.7,68.2,30.15,NW,311,5.8,5.8,83,0.00,CLR,,0.00,WeatherDisplay:10.37,2013-12-26 17:03:00,
2013-12-26 12:08:00,73.6,68.1,30.15,NNE,23,5.8,5.8,83,0.00,CLR,,0.00,WeatherDisplay:10.37,2013-12-26 17:08:00,
2013-12-26 12:13:00,73.6,68.1,30.14,NNE,13,5.8,5.8,83,0.00,CLR,,0.00,WeatherDisplay:10.37,2013-12-26 17:13:00,
2013-12-26 12:18:00,73.9,68.8,30.13,NNE,25,5.8,5.8,84,0.00,CLR,,0.00,WeatherDisplay:10.37,2013-12-26 17:18:00,
2013-12-26 12:23:00,74.4,68.9,30.12,NNE,20,9.2,9.2,83,0.00,CLR,,0.00,WeatherDisplay:10.37,2013-12-26 17:23:00,
2013-12-26 12:28:00,75.1,69.6,30.12,NE,36,7.0,7.0,83,0.00,CLR,,0.00,WeatherDisplay:10.37,2013-12-26 17:28:00,
2013-12-26 12:33:00,75.7,69.5,30.12,NNE,30,5.8,5.8,81,0.00,CLR,,0.00,WeatherDisplay:10.37,2013-12-26 17:33:00,
2013-12-26 12:38:00,75.8,69.6,30.11,North,7,6.9,6.9,81,0.00,CLR,,0.00,WeatherDisplay:10.37,2013-12-26 17:38:00,
2013-12-26 12:43:00,76.0,69.7,30.11,NE,46,10.4,10.4,81,0.00,CLR,,0.00,WeatherDisplay:10.37,2013-12-26 17:43:00,
2013-12-26 12:48:00,76.2,69.9,30.10,NNE,29,9.2,9.2,81,0.00,CLR,,0.00,WeatherDisplay:10.37,2013-12-26 17:48:00,
2013-12-26 12:53:00,76.5,69.9,30.10,NNE,32,9.2,9.2,80,0.00,CLR,,0.00,WeatherDisplay:10.37,2013-12-26 17:53:00,
2013-12-26 12:58:00,77.1,70.5,30.11,East,92,4.6,4.6,80,0.00,CLR,,0.00,WeatherDisplay:10.37,2013-12-26 17:58:00,
2013-12-26 13:03:00,78.0,70.6,30.11,NNE,25,10.4,10.4,78,0.00,CLR,,0.00,WeatherDisplay:10.37,2013-12-26 18:03:00,
2013-12-26 13:08:00,77.9,70.1,30.10,NNE,23,9.0,9.0,77,0.00,CLR,,0.00,WeatherDisplay:10.37,2013-12-26 18:08:00,
2013-12-26 13:13:00,78.3,70.5,30.10,East,82,9.2,9.2,77,0.00,CLR,,0.00,WeatherDisplay:10.37,2013-12-26 18:13:00,
2013-12-26 13:18:00,78.4,70.6,30.09,NE,39,10.4,10.4,77,0.00,CLR,,0.00,WeatherDisplay:10.37,2013-12-26 18:18:00,
2013-12-26 13:23:00,78.4,70.6,30.09,NE,43,11.0,11.0,77,0.00,CLR,,0.00,WeatherDisplay:10.37,2013-12-26 18:23:00,
2013-12-26 13:28:00,78.2,70.0,30.09,East,94,4.6,4.6,76,0.00,CLR,,0.00,WeatherDisplay:10.37,2013-12-26 18:28:00,
2013-12-26 13:33:00,78.5,69.5,30.09,NE,41,11.5,11.5,74,0.00,CLR,,0.00,WeatherDisplay:10.37,2013-12-26 18:33:00,
2013-12-26 13:38:00,78.4,69.8,30.08,NE,49,6.0,6.0,75,0.00,CLR,,0.00,WeatherDisplay:10.37,2013-12-26 18:38:00,
2013-12-26 13:43:00,78.5,69.5,30.08,NE,41,9.2,9.2,74,0.00,CLR,,0.00,WeatherDisplay:10.37,2013-12-26 18:43:00,
2013-12-26 13:48:00,78.7,69.7,30.08,ESE,106,6.9,6.9,74,0.00,CLR,,0.00,WeatherDisplay:10.37,2013-12-26 18:48:00,
2013-12-26 13:53:00,78.5,69.1,30.08,ENE,63,8.1,8.1,73,0.00,CLR,,0.00,WeatherDisplay:10.37,2013-12-26 18:53:00,
2013-12-26 13:58:00,78.4,69.0,30.08,ENE,62,11.5,11.5,73,0.00,CLR,,0.00,WeatherDisplay:10.37,2013-12-26 18:58:00,
2013-12-26 14:03:00,78.2,68.8,30.08,NE,53,11.5,11.5,73,0.00,CLR,,0.00,WeatherDisplay:10.37,2013-12-26 19:03:00,
2013-12-26 14:08:00,78.2,69.2,30.08,ENE,76,9.2,9.2,74,0.00,CLR,,0.00,WeatherDisplay:10.37,2013-12-26 19:08:00,
2013-12-26 14:13:00,78.4,69.4,30.08,ENE,57,8.1,8.1,74,0.00,CLR,,0.00,WeatherDisplay:10.37,2013-12-26 19:13:00,
2013-12-26 14:18:00,78.6,68.8,30.07,ENE,73,10.4,10.4,72,0.00,CLR,,0.00,WeatherDisplay:10.37,2013-12-26 19:18:00,
2013-12-26 14:23:00,78.7,68.9,30.07,NE,41,11.5,11.5,72,0.00,CLR,,0.00,WeatherDisplay:10.37,2013-12-26 19:23:00,
2013-12-26 14:28:00,78.9,69.1,30.06,NE,54,11.5,11.5,72,0.00,CLR,,0.00,WeatherDisplay:10.37,2013-12-26 19:28:00,
2013-12-26 14:33:00,79.4,68.8,30.06,NE,56,9.2,9.2,70,0.00,CLR,,0.00,WeatherDisplay:10.37,2013-12-26 19:33:00,
2013-12-26 14:38:00,79.4,68.8,30.06,NE,56,9.2,9.2,70,0.00,CLR,,0.00,WeatherDisplay:10.37,2013-12-26 19:38:00,
2013-12-26 14:43:00,79.6,68.5,30.06,NE,44,11.5,11.5,69,0.00,CLR,,0.00,WeatherDisplay:10.37,2013-12-26 19:43:00,
2013-12-26 14:48:00,79.5,68.9,30.06,East,79,8.1,8.1,70,0.00,CLR,,0.00,WeatherDisplay:10.37,2013-12-26 19:48:00,
2013-12-26 14:53:00,79.4,68.8,30.06,ENE,57,10.4,10.4,70,0.00,CLR,,0.00,WeatherDisplay:10.37,2013-12-26 19:53:00,
2013-12-26 14:58:00,79.7,69.0,30.05,NE,44,8.0,8.0,70,0.00,CLR,,0.00,WeatherDisplay:10.37,2013-12-26 19:58:00,
2013-12-26 15:03:00,80.0,68.9,30.05,NNE,27,10.0,10.0,69,0.00,CLR,,0.00,WeatherDisplay:10.37,2013-12-26 20:03:00,
2013-12-26 15:08:00,79.8,69.1,30.05,NE,47,9.0,9.0,70,0.00,CLR,,0.00,WeatherDisplay:10.37,2013-12-26 20:08:00,
2013-12-26 15:13:00,79.4,68.8,30.06,NE,47,9.2,9.2,70,0.00,CLR,,0.00,WeatherDisplay:10.37,2013-12-26 20:13:00,
2013-12-26 15:18:00,79.2,68.1,30.06,NNE,25,9.2,9.2,69,0.00,CLR,,0.00,WeatherDisplay:10.37,2013-12-26 20:18:00,
2013-12-26 15:23:00,79.4,68.8,30.06,NNE,18,6.9,6.9,70,0.00,CLR,,0.00,WeatherDisplay:10.37,2013-12-26 20:23:00,
2013-12-26 15:28:00,79.8,68.7,30.06,NNE,20,11.5,11.5,69,0.00,CLR,,0.00,WeatherDisplay:10.37,2013-12-26 20:28:00,
2013-12-26 15:33:00,80.4,69.3,30.06,ENE,67,6.0,6.0,69,0.00,CLR,,0.00,WeatherDisplay:10.37,2013-12-26 20:33:00,
2013-12-26 15:38:00,80.4,69.3,30.06,ENE,74,8.0,8.0,69,0.00,CLR,,0.00,WeatherDisplay:10.37,2013-12-26 20:38:00,
2013-12-26 15:43:00,80.1,69.0,30.06,ENE,78,6.9,6.9,69,0.00,CLR,,0.00,WeatherDisplay:10.37,2013-12-26 20:43:00,
2013-12-26 15:48:00,79.6,69.0,30.06,NE,41,6.9,6.9,70,0.00,CLR,,0.00,WeatherDisplay:10.37,2013-12-26 20:48:00,
2013-12-26 15:53:00,79.4,69.2,30.06,ENE,63,6.0,6.0,71,0.00,CLR,,0.00,WeatherDisplay:10.37,2013-12-26 20:53:00,
2013-12-26 15:58:00,79.2,69.0,30.06,NE,56,9.2,9.2,71,0.00,CLR,,0.00,WeatherDisplay:10.37,2013-12-26 20:58:00,
2013-12-26 16:03:00,79.0,69.2,30.06,NE,41,5.8,5.8,72,0.00,CLR,,0.00,WeatherDisplay:10.37,2013-12-26 21:03:00,
2013-12-26 16:08:00,78.9,69.1,30.06,East,79,8.1,8.1,72,0.00,CLR,,0.00,WeatherDisplay:10.37,2013-12-26 21:08:00,
2013-12-26 16:13:00,78.9,69.1,30.06,NE,35,5.8,5.8,72,0.00,CLR,,0.00,WeatherDisplay:10.37,2013-12-26 21:13:00,
2013-12-26 16:18:00,79.0,68.8,30.07,NNW,335,5.8,5.8,71,0.00,CLR,,0.00,WeatherDisplay:10.37,2013-12-26 21:18:00,
2013-12-26 16:23:00,79.3,69.1,30.06,NE,37,9.2,9.2,71,0.00,CLR,,0.00,WeatherDisplay:10.37,2013-12-26 21:23:00,
2013-12-26 16:28:00,79.1,68.9,30.06,NE,53,6.9,6.9,71,0.00,CLR,,0.00,WeatherDisplay:10.37,2013-12-26 21:28:00,
2013-12-26 16:33:00,79.0,69.2,30.06,NNE,23,9.2,9.2,72,0.00,CLR,,0.00,WeatherDisplay:10.37,2013-12-26 21:33:00,
2013-12-26 16:38:00,79.1,69.3,30.06,NNE,23,10.4,10.4,72,0.00,CLR,,0.00,WeatherDisplay:10.37,2013-12-26 21:38:00,
2013-12-26 16:43:00,78.7,68.5,30.06,NE,52,10.4,10.4,71,0.00,CLR,,0.00,WeatherDisplay:10.37,2013-12-26 21:43:00,
2013-12-26 16:48:00,78.2,68.0,30.07,NNE,30,8.1,8.1,71,0.00,CLR,,0.00,WeatherDisplay:10.37,2013-12-26 21:48:00,
2013-12-26 16:53:00,77.8,68.0,30.07,NE,36,10.4,10.4,72,0.00,CLR,,0.00,WeatherDisplay:10.37,2013-12-26 21:53:00,
2013-12-26 16:58:00,77.6,68.3,30.07,NE,41,8.1,8.1,73,0.00,CLR,,0.00,WeatherDisplay:10.37,2013-12-26 21:58:00,
2013-12-26 17:03:00,77.5,68.6,30.07,NE,42,11.5,11.5,74,0.00,CLR,,0.00,WeatherDisplay:10.37,2013-12-26 22:03:00,
2013-12-26 17:08:00,77.5,68.9,30.07,NE,39,12.7,12.7,75,0.00,CLR,,0.00,WeatherDisplay:10.37,2013-12-26 22:08:00,
2013-12-26 17:13:00,77.4,68.9,30.07,North,352,8.0,8.0,75,0.00,CLR,,0.00,WeatherDisplay:10.37,2013-12-26 22:13:00,
2013-12-26 17:18:00,77.3,69.1,30.07,NNE,30,8.1,8.1,76,0.00,CLR,,0.00,WeatherDisplay:10.37,2013-12-26 22:18:00,
2013-12-26 17:23:00,77.2,69.4,30.07,NNE,25,9.2,9.2,77,0.00,CLR,,0.00,WeatherDisplay:10.37,2013-12-26 22:23:00,
2013-12-26 17:28:00,77.0,69.2,30.07,NNE,13,7.0,7.0,77,0.00,CLR,,0.00,WeatherDisplay:10.37,2013-12-26 22:28:00,
2013-12-26 17:33:00,76.8,69.0,30.08,NE,34,9.2,9.2,77,0.00,CLR,,0.00,WeatherDisplay:10.37,2013-12-26 22:33:00,
2013-12-26 17:35:00,76.7,69.3,30.08,NNE,23,3.5,3.5,78,0.00,CLR,,0.00,WeatherDisplay:10.37,2013-12-26 22:35:00,
2013-12-26 17:40:00,76.6,69.2,30.08,NE,44,6.9,6.9,78,0.00,CLR,,0.00,WeatherDisplay:10.37,2013-12-26 22:40:00,
2013-12-26 17:45:00,76.4,69.0,30.08,NNE,19,4.6,4.6,78,0.00,CLR,,0.00,WeatherDisplay:10.37,2013-12-26 22:45:00,
2013-12-26 17:50:00,76.2,69.2,30.08,NE,46,5.8,5.8,79,0.00,CLR,,0.00,WeatherDisplay:10.37,2013-12-26 22:50:00,
2013-12-26 17:55:00,76.1,69.1,30.08,NE,39,7.0,7.0,79,0.00,CLR,,0.00,WeatherDisplay:10.37,2013-12-26 22:55:00,
2013-12-26 18:00:00,75.9,69.3,30.08,NE,41,4.0,4.0,80,0.00,CLR,,0.00,WeatherDisplay:10.37,2013-12-26 23:00:00,
2013-12-26 18:05:00,75.6,69.0,30.08,NE,44,3.5,3.5,80,0.00,CLR,,0.00,WeatherDisplay:10.37,2013-12-26 23:05:00,
2013-12-26 18:10:00,75.4,69.2,30.09,NNW,336,3.5,3.5,81,0.00,CLR,,0.00,WeatherDisplay:10.37,2013-12-26 23:10:00,
2013-12-26 18:15:00,75.1,68.9,30.09,North,349,0.0,0.0,81,0.00,CLR,,0.00,WeatherDisplay:10.37,2013-12-26 23:15:00,
2013-12-26 18:20:00,74.9,69.0,30.09,North,359,1.2,1.2,82,0.00,CLR,,0.00,WeatherDisplay:10.37,2013-12-26 23:20:00,
2013-12-26 18:25:00,74.5,69.0,30.09,NNE,15,2.3,2.3,83,0.00,CLR,,0.00,WeatherDisplay:10.37,2013-12-26 23:25:00,
2013-12-26 18:30:00,74.4,68.9,30.09,NNE,33,3.5,3.5,83,0.00,CLR,,0.00,WeatherDisplay:10.37,2013-12-26 23:30:00,
2013-12-26 18:35:00,74.2,69.1,30.09,NNE,19,3.5,3.5,84,0.00,CLR,,0.00,WeatherDisplay:10.37,2013-12-26 23:35:00,
2013-12-26 18:37:00,74.1,69.0,30.09,North,11,4.0,4.0,84,0.00,CLR,,0.00,WeatherDisplay:10.37,2013-12-26 23:37:00,
2013-12-26 18:42:00,73.9,68.8,30.09,NNE,22,4.0,4.0,84,0.00,CLR,,0.00,WeatherDisplay:10.37,2013-12-26 23:42:00,
2013-12-26 18:44:00,73.9,68.8,30.09,NE,39,3.5,3.5,84,0.00,CLR,,0.00,WeatherDisplay:10.37,2013-12-26 23:44:00,
2013-12-26 18:49:00,73.7,68.9,30.08,NNE,26,3.5,3.5,85,0.00,CLR,,0.00,WeatherDisplay:10.37,2013-12-26 23:49:00,
2013-12-26 18:54:00,73.6,68.8,30.09,NE,49,3.5,3.5,85,0.00,CLR,,0.00,WeatherDisplay:10.37,2013-12-26 23:54:00,
2013-12-26 18:59:00,73.5,69.1,30.09,NNE,23,3.5,3.5,86,0.00,CLR,,0.00,WeatherDisplay:10.37,2013-12-26 23:59:00,
2013-12-26 19:04:00,73.3,68.9,30.09,North,11,3.5,3.5,86,0.00,CLR,,0.00,WeatherDisplay:10.37,2013-12-27 00:04:00,
2013-12-26 19:09:00,73.2,68.8,30.09,NNE,25,3.5,3.5,86,0.00,CLR,,0.00,WeatherDisplay:10.37,2013-12-27 00:09:00,
2013-12-26 19:14:00,73.1,68.7,30.09,NNE,13,3.5,3.5,86,0.00,CLR,,0.00,WeatherDisplay:10.37,2013-12-27 00:14:00,
2013-12-26 19:19:00,73.1,69.0,30.09,NNE,25,3.5,3.5,87,0.00,CLR,,0.00,WeatherDisplay:10.37,2013-12-27 00:19:00,
2013-12-26 19:24:00,72.9,68.8,30.09,NNE,30,3.5,3.5,87,0.00,CLR,,0.00,WeatherDisplay:10.37,2013-12-27 00:24:00,
2013-12-26 19:29:00,72.8,68.7,30.09,North,5,3.5,3.5,87,0.00,CLR,,0.00,WeatherDisplay:10.37,2013-12-27 00:29:00,
2013-12-26 19:34:00,72.7,68.6,30.10,NNE,25,6.0,6.0,87,0.00,CLR,,0.00,WeatherDisplay:10.37,2013-12-27 00:34:00,
2013-12-26 19:39:00,72.5,68.7,30.10,NNE,33,4.6,4.6,88,0.00,CLR,,0.00,WeatherDisplay:10.37,2013-12-27 00:39:00,
2013-12-26 19:44:00,72.4,68.6,30.10,NNE,27,3.5,3.5,88,0.00,CLR,,0.00,WeatherDisplay:10.37,2013-12-27 00:44:00,
2013-12-26 19:49:00,72.3,68.5,30.10,NE,49,3.5,3.5,88,0.00,CLR,,0.00,WeatherDisplay:10.37,2013-12-27 00:49:00,
2013-12-26 19:54:00,72.2,68.4,30.10,NE,46,3.5,3.5,88,0.00,CLR,,0.00,WeatherDisplay:10.37,2013-12-27 00:54:00,
2013-12-26 19:59:00,72.1,68.7,30.10,NNE,12,3.5,3.5,89,0.00,CLR,,0.00,WeatherDisplay:10.37,2013-12-27 00:59:00,
2013-12-26 20:04:00,72.0,68.6,30.11,North,349,3.5,3.5,89,0.00,CLR,,0.00,WeatherDisplay:10.37,2013-12-27 01:04:00,
2013-12-26 20:09:00,71.9,68.5,30.11,NNW,339,3.5,3.5,89,0.00,CLR,,0.00,WeatherDisplay:10.37,2013-12-27 01:09:00,
2013-12-26 20:14:00,71.8,68.4,30.11,NNE,23,3.5,3.5,89,0.00,CLR,,0.00,WeatherDisplay:10.37,2013-12-27 01:14:00,
2013-12-26 20:19:00,71.6,68.2,30.11,NE,41,4.0,4.0,89,0.00,CLR,,0.00,WeatherDisplay:10.37,2013-12-27 01:19:00,
2013-12-26 20:25:00,71.5,68.1,30.11,NE,39,4.0,4.0,89,0.00,CLR,,0.00,WeatherDisplay:10.37,2013-12-27 01:25:00,
2013-12-26 20:30:00,71.4,68.0,30.11,NE,34,4.6,4.6,89,0.00,CLR,,0.00,WeatherDisplay:10.37,2013-12-27 01:30:00,
2013-12-26 20:35:00,71.4,68.3,30.11,NNE,30,3.5,3.5,90,0.00,CLR,,0.00,WeatherDisplay:10.37,2013-12-27 01:35:00,
2013-12-26 20:40:00,71.3,68.2,30.11,NNE,17,3.5,3.5,90,0.00,CLR,,0.00,WeatherDisplay:10.37,2013-12-27 01:40:00,
2013-12-26 20:45:00,71.2,68.1,30.11,NE,35,3.5,3.5,90,0.00,CLR,,0.00,WeatherDisplay:10.37,2013-12-27 01:45:00,
2013-12-26 20:50:00,71.2,68.1,30.12,NNE,29,2.3,2.3,90,0.00,CLR,,0.00,WeatherDisplay:10.37,2013-12-27 01:50:00,
2013-12-26 20:55:00,71.1,68.0,30.12,NE,34,3.5,3.5,90,0.00,CLR,,0.00,WeatherDisplay:10.37,2013-12-27 01:55:00,
2013-12-26 21:00:00,71.0,67.9,30.12,NNE,30,3.5,3.5,90,0.00,CLR,,0.00,WeatherDisplay:10.37,2013-12-27 02:00:00,
2013-12-26 21:05:00,70.9,67.8,30.12,NE,35,2.3,2.3,90,0.00,CLR,,0.00,WeatherDisplay:10.37,2013-12-27 02:05:00,
2013-12-26 21:10:00,70.8,67.7,30.12,NE,39,2.3,2.3,90,0.00,CLR,,0.00,WeatherDisplay:10.37,2013-12-27 02:10:00,
2013-12-26 21:15:00,70.7,67.6,30.13,North,8,2.3,2.3,90,0.00,CLR,,0.00,WeatherDisplay:10.37,2013-12-27 02:15:00,
2013-12-26 21:20:00,70.6,67.8,30.13,North,11,3.5,3.5,91,0.00,CLR,,0.00,WeatherDisplay:10.37,2013-12-27 02:20:00,
2013-12-26 21:25:00,70.5,67.7,30.13,North,349,2.3,2.3,91,0.00,CLR,,0.00,WeatherDisplay:10.37,2013-12-27 02:25:00,
2013-12-26 21:30:00,70.3,67.5,30.13,North,11,3.5,3.5,91,0.00,CLR,,0.00,WeatherDisplay:10.37,2013-12-27 02:30:00,
2013-12-26 21:35:00,70.3,67.5,30.13,North,4,2.3,2.3,91,0.00,CLR,,0.00,WeatherDisplay:10.37,2013-12-27 02:35:00,
2013-12-26 21:40:00,70.2,67.4,30.13,North,11,2.3,2.3,91,0.00,CLR,,0.00,WeatherDisplay:10.37,2013-12-27 02:40:00,
2013-12-26 21:45:00,70.2,67.4,30.14,North,358,3.5,3.5,91,0.00,CLR,,0.00,WeatherDisplay:10.37,2013-12-27 02:45:00,
2013-12-26 21:50:00,70.1,67.3,30.14,NNE,27,3.5,3.5,91,0.00,CLR,,0.00,WeatherDisplay:10.37,2013-12-27 02:50:00,
2013-12-26 21:55:00,70.1,67.3,30.14,NNE,15,2.3,2.3,91,0.00,CLR,,0.00,WeatherDisplay:10.37,2013-12-27 02:55:00,
2013-12-26 22:00:00,70.0,67.3,30.14,NNE,17,2.3,2.3,91,0.00,CLR,,0.00,WeatherDisplay:10.37,2013-12-27 03:00:00,
2013-12-26 22:05:00,69.9,67.5,30.14,NNE,27,3.5,3.5,92,0.00,CLR,,0.00,WeatherDisplay:10.37,2013-12-27 03:05:00,
2013-12-26 22:10:00,69.8,67.4,30.14,NNE,19,0.0,0.0,92,0.00,CLR,,0.00,WeatherDisplay:10.37,2013-12-27 03:10:00,
2013-12-26 22:15:00,69.8,67.4,30.14,NNE,29,1.2,1.2,92,0.00,CLR,,0.00,WeatherDisplay:10.37,2013-12-27 03:15:00,
2013-12-26 22:20:00,69.7,67.3,30.15,North,354,1.2,1.2,92,0.00,CLR,,0.00,WeatherDisplay:10.37,2013-12-27 03:20:00,
2013-12-26 22:25:00,69.6,67.2,30.14,NNE,18,2.3,2.3,92,0.00,CLR,,0.00,WeatherDisplay:10.37,2013-12-27 03:25:00,
2013-12-26 22:30:00,69.6,67.2,30.15,NNW,342,3.5,3.5,92,0.00,CLR,,0.00,WeatherDisplay:10.37,2013-12-27 03:30:00,
2013-12-26 22:35:00,69.6,67.5,30.15,North,4,2.3,2.3,93,0.00,CLR,,0.00,WeatherDisplay:10.37,2013-12-27 03:35:00,
2013-12-26 22:40:00,69.7,67.6,30.15,NNW,339,1.2,1.2,93,0.00,CLR,,0.00,WeatherDisplay:10.37,2013-12-27 03:40:00,
2013-12-26 22:45:00,69.7,67.6,30.15,NNW,342,2.3,2.3,93,0.00,CLR,,0.00,WeatherDisplay:10.37,2013-12-27 03:45:00,
2013-12-26 22:50:00,69.8,67.4,30.15,NNW,331,3.5,3.5,92,0.00,CLR,,0.00,WeatherDisplay:10.37,2013-12-27 03:50:00,
2013-12-26 22:55:00,69.8,67.4,30.15,NNW,342,3.5,3.5,92,0.00,CLR,,0.00,WeatherDisplay:10.37,2013-12-27 03:55:00,
2013-12-26 23:00:00,69.8,67.4,30.15,NNW,342,2.3,2.3,92,0.00,CLR,,0.00,WeatherDisplay:10.37,2013-12-27 04:00:00,
2013-12-26 23:05:00,69.8,67.4,30.15,NNW,342,2.3,2.3,92,0.00,CLR,,0.00,WeatherDisplay:10.37,2013-12-27 04:05:00,
2013-12-26 23:33:00,70.1,67.7,30.14,NNE,15,7.0,7.0,92,0.00,CLR,,0.00,WeatherDisplay:10.37,2013-12-27 04:33:00,
2013-12-26 23:38:00,70.2,67.8,30.14,NNE,15,4.6,4.6,92,0.00,CLR,,0.00,WeatherDisplay:10.37,2013-12-27 04:38:00,
2013-12-26 23:43:00,70.3,67.9,30.14,NNE,19,8.1,8.1,92,0.00,CLR,,0.00,WeatherDisplay:10.37,2013-12-27 04:43:00,
2013-12-26 23:48:00,70.3,67.9,30.14,NE,41,8.1,8.1,92,0.00,CLR,,0.00,WeatherDisplay:10.37,2013-12-27 04:48:00,
2013-12-26 23:53:00,70.3,67.9,30.14,NE,41,8.0,8.0,92,0.00,CLR,,0.00,WeatherDisplay:10.37,2013-12-27 04:53:00,
2013-12-26 23:58:00,70.3,67.9,30.13,NNE,13,8.1,8.1,92,0.00,CLR,,0.00,WeatherDisplay:10.37,2013-12-27 04:58:00,